TimeEST,TemperatureF,Dew PointF,Humidity,Sea Level PressureIn,VisibilityMPH,Wind Direction,Wind SpeedMPH,Gust SpeedMPH,PrecipitationIn,Events,Conditions,WindDirDegrees,DateUTC
12:48 AM,42.8,39.2,87,29.87,1.5,ESE,3.5,-,0.02,Rain,Light Rain,120,2012-12-08 05:48:00
12:49 AM,43.0,39.9,89,29.88,1.5,Calm,Calm,-,0.02,Rain,Light Rain,0,2012-12-08 05:49:00
1:02 AM,44.6,41.0,87,29.86,2.5,Calm,Calm,-,0.01,Rain,Light Rain,0,2012-12-08 06:02:00
1:16 AM,44.6,41.0,87,29.86,3.0,Calm,Calm,-,0.01,Rain,Light Rain,0,2012-12-08 06:16:00
1:47 AM,44.6,41.0,87,29.85,1.8,Calm,Calm,-,0.01,Rain,Light Rain,0,2012-12-08 06:47:00
1:48 AM,44.1,41.0,89,29.86,1.8,Calm,Calm,-,0.01,Rain,Light Rain,0,2012-12-08 06:48:00
2:17 AM,42.8,41.0,93,29.85,2.0,Calm,Calm,-,0.01,Rain,Light Rain,0,2012-12-08 07:17:00
2:27 AM,44.6,41.0,87,29.85,1.5,Calm,Calm,-,0.01,,Overcast,0,2012-12-08 07:27:00
2:48 AM,44.6,41.0,87,29.84,2.5,Calm,Calm,-,0.01,Rain,Light Rain,0,2012-12-08 07:48:00
2:53 AM,44.1,41.0,89,29.85,3.0,East,3.5,-,0.01,,Overcast,100,2012-12-08 07:53:00
3:00 AM,44.6,41.0,87,29.84,2.0,East,3.5,-,N/A,,Overcast,100,2012-12-08 08:00:00
3:06 AM,44.6,41.0,87,29.84,2.0,Calm,Calm,-,N/A,,Overcast,0,2012-12-08 08:06:00
3:38 AM,44.6,41.0,87,29.82,1.8,Calm,Calm,-,N/A,,Overcast,0,2012-12-08 08:38:00
3:53 AM,44.1,41.0,89,29.83,1.5,East,3.5,-,0.01,,Overcast,80,2012-12-08 08:53:00
4:53 AM,45.0,42.1,90,29.81,2.0,Calm,Calm,-,0.02,Rain,Light Rain,0,2012-12-08 09:53:00
5:04 AM,44.6,42.8,93,29.79,2.0,Calm,Calm,-,0.00,Rain,Light Rain,0,2012-12-08 10:04:00
5:21 AM,44.6,42.8,93,29.79,1.8,ENE,3.5,-,0.00,,Overcast,70,2012-12-08 10:21:00
5:35 AM,44.6,42.8,93,29.79,2.0,Calm,Calm,-,0.00,,Overcast,0,2012-12-08 10:35:00
5:43 AM,44.6,42.8,93,29.79,1.5,Calm,Calm,-,0.00,,Overcast,0,2012-12-08 10:43:00
6:23 AM,44.6,42.8,93,29.79,1.0,Calm,Calm,-,0.01,,Overcast,0,2012-12-08 11:23:00
6:53 AM,45.0,42.1,90,29.81,1.0,Calm,Calm,-,0.01,,Overcast,0,2012-12-08 11:53:00
7:02 AM,44.6,42.8,93,29.80,0.8,Calm,Calm,-,N/A,,Overcast,0,2012-12-08 12:02:00
7:30 AM,44.6,42.8,93,29.79,1.0,SSW,3.5,-,N/A,,Overcast,200,2012-12-08 12:30:00
7:45 AM,46.4,42.8,87,29.79,1.5,SSW,4.6,-,N/A,,Overcast,210,2012-12-08 12:45:00
7:53 AM,46.0,44.1,93,29.80,2.5,SSW,5.8,-,N/A,,Overcast,210,2012-12-08 12:53:00
8:00 AM,46.4,44.6,93,29.78,4.0,SSW,5.8,-,N/A,,Overcast,210,2012-12-08 13:00:00
8:12 AM,46.4,44.6,93,29.79,5.0,SW,6.9,-,0.01,,Overcast,230,2012-12-08 13:12:00
8:23 AM,48.2,44.6,87,29.79,4.0,SW,6.9,-,0.01,,Overcast,230,2012-12-08 13:23:00
8:53 AM,48.0,45.0,89,29.81,4.0,WSW,9.2,-,0.01,,Overcast,250,2012-12-08 13:53:00
9:05 AM,48.2,44.6,87,29.82,2.0,West,9.2,-,N/A,,Overcast,260,2012-12-08 14:05:00
9:18 AM,48.2,44.6,87,29.82,3.0,West,8.1,-,N/A,,Overcast,270,2012-12-08 14:18:00
9:38 AM,46.4,44.6,93,29.82,4.0,WSW,8.1,-,N/A,,Overcast,250,2012-12-08 14:38:00
9:53 AM,48.0,44.1,86,29.84,6.0,WSW,10.4,-,N/A,,Overcast,250,2012-12-08 14:53:00
10:53 AM,48.0,45.0,89,29.85,5.0,West,8.1,-,N/A,,Overcast,280,2012-12-08 15:53:00
11:53 AM,48.0,44.1,86,29.86,5.0,West,12.7,-,N/A,,Overcast,270,2012-12-08 16:53:00
12:53 PM,46.9,44.1,90,29.84,4.0,West,6.9,-,N/A,,Overcast,270,2012-12-08 17:53:00
1:53 PM,46.9,44.1,90,29.86,4.0,West,8.1,-,N/A,,Overcast,280,2012-12-08 18:53:00
2:05 PM,46.4,42.8,87,29.85,3.0,West,12.7,18.4,N/A,,Overcast,280,2012-12-08 19:05:00
2:15 PM,46.4,42.8,87,29.85,6.0,West,12.7,-,N/A,,Overcast,270,2012-12-08 19:15:00
2:53 PM,46.0,42.1,86,29.88,10.0,West,11.5,-,N/A,,Overcast,270,2012-12-08 19:53:00
3:28 PM,44.6,42.8,93,29.89,2.0,NNW,9.2,-,N/A,,Overcast,330,2012-12-08 20:28:00
3:36 PM,44.6,41.0,87,29.90,1.2,NW,9.2,-,N/A,,Overcast,320,2012-12-08 20:36:00
3:53 PM,43.0,39.9,89,29.94,1.8,NNW,10.4,-,N/A,,Overcast,330,2012-12-08 20:53:00
4:48 PM,41.0,37.4,87,29.97,2.5,NNW,9.2,-,0.00,Rain,Light Rain,330,2012-12-08 21:48:00
4:53 PM,41.0,37.0,86,29.99,2.5,NNW,6.9,-,0.00,Rain,Light Rain,330,2012-12-08 21:53:00
5:00 PM,39.2,37.4,93,29.98,4.0,NW,6.9,-,0.00,,Overcast,320,2012-12-08 22:00:00
5:53 PM,39.0,36.0,89,30.02,4.0,NNW,8.1,-,0.01,,Overcast,340,2012-12-08 22:53:00
6:02 PM,39.2,35.6,87,30.01,6.0,NNW,8.1,-,N/A,,Overcast,340,2012-12-08 23:02:00
6:16 PM,39.2,35.6,87,30.02,7.0,North,5.8,16.1,N/A,,Overcast,360,2012-12-08 23:16:00
6:28 PM,39.2,35.6,87,30.03,10.0,NNW,5.8,-,N/A,,Overcast,340,2012-12-08 23:28:00
6:53 PM,39.0,35.1,86,30.06,10.0,NNW,3.5,-,N/A,,Overcast,340,2012-12-08 23:53:00
7:53 PM,37.9,33.1,83,30.08,10.0,North,3.5,-,N/A,,Overcast,360,2012-12-09 00:53:00
8:53 PM,37.9,32.0,79,30.12,10.0,North,5.8,-,N/A,,Overcast,360,2012-12-09 01:53:00
9:53 PM,37.0,30.9,79,30.14,10.0,NNE,3.5,-,N/A,,Overcast,30,2012-12-09 02:53:00
10:53 PM,37.0,30.0,76,30.15,10.0,NE,3.5,-,N/A,,Overcast,50,2012-12-09 03:53:00
11:53 PM,36.0,30.0,79,30.15,10.0,NE,4.6,-,N/A,,Overcast,50,2012-12-09 04:53:00